20050502,000029,1501062,32.707181,-117.236745,20.885,2.982,1.813,4.706
20050502,000058,1501091,32.707176,-117.236745,20.885,2.982,1.746,4.475
20050502,000128,1501121,32.707181,-117.236745,20.885,2.982,1.847,4.842
20050502,000159,1501152,32.707178,-117.236747,20.885,2.982,1.867,4.920
20050502,000229,1501182,32.707188,-117.236747,20.885,2.982,1.713,4.372
20050502,000258,1501211,32.707183,-117.236745,20.885,2.982,1.619,4.037
20050502,000328,1501241,32.707193,-117.236748,20.885,2.982,1.760,4.520
20050502,000358,1501271,32.707188,-117.236747,20.885,2.982,1.739,4.446
20050502,000429,1501302,32.707190,-117.236747,20.885,2.982,1.827,4.752
20050502,000459,1501332,32.707191,-117.236743,20.886,2.982,1.827,4.736
20050502,000528,1501361,32.707181,-117.236742,20.886,2.982,1.692,4.279
20050502,000559,1501392,32.707188,-117.236740,20.886,2.982,1.686,4.256
20050502,000628,1501421,32.707181,-117.236743,20.886,2.982,1.726,4.393
20050502,000659,1501452,32.707188,-117.236740,20.886,2.982,1.827,4.747
20050502,000729,1501482,32.707190,-117.236743,20.887,2.982,1.793,4.627
20050502,000758,1501511,32.707201,-117.236745,20.887,2.982,1.867,4.881
20050502,000828,1501541,32.707188,-117.236745,20.886,2.982,1.672,4.190
20050502,000858,1501571,32.707188,-117.236740,20.887,2.983,1.619,4.010
20050502,000928,1501601,32.707183,-117.236743,20.887,2.983,1.746,4.444
20050502,000959,1501632,32.707186,-117.236737,20.888,2.983,1.780,4.557
20050502,001029,1501662,32.707183,-117.236740,20.888,2.983,1.713,4.308
20050502,001059,1501692,32.707195,-117.236742,20.888,2.983,1.820,4.674
20050502,001129,1501722,32.707198,-117.236745,20.888,2.983,1.659,4.120
20050502,001159,1501752,32.707191,-117.236747,20.888,2.983,1.854,4.813
20050502,001228,1501781,32.707188,-117.236743,20.889,2.983,1.726,4.355
20050502,001258,1501811,32.707211,-117.236755,20.888,2.983,1.780,4.522
20050502,001329,1501842,32.707208,-117.236753,20.890,2.983,1.827,4.660
20050502,001358,1501871,32.707206,-117.236750,20.890,2.983,1.800,4.547
20050502,001429,1501902,32.707200,-117.236742,20.890,2.983,1.786,4.491
20050502,001459,1501932,32.707195,-117.236745,20.891,2.983,1.672,4.094
20050502,001529,1501962,32.707188,-117.236742,20.891,2.983,1.726,4.254
20050502,001559,1501992,32.707196,-117.236745,20.892,2.983,1.793,4.456
20050502,001628,1502021,32.707205,-117.236740,20.892,2.983,1.692,4.142
20050502,001659,1502053,32.707206,-117.236742,20.892,2.983,1.807,4.533
20050502,001728,1502081,32.707196,-117.236742,20.892,2.983,1.739,4.289
20050502,001759,1502112,32.707196,-117.236745,20.892,2.983,1.786,4.433
20050502,001829,1502142,32.707185,-117.236743,20.893,2.983,1.760,4.309
20050502,001859,1502172,32.707193,-117.236747,20.894,2.983,1.746,4.268
20050502,001929,1502202,32.707190,-117.236748,20.893,2.984,1.652,3.953
20050502,001959,1502232,32.707195,-117.236753,20.894,2.984,1.726,4.211
20050502,002029,1502262,32.707190,-117.236752,20.894,2.984,1.753,4.314
20050502,002100,1502293,32.707186,-117.236752,20.894,2.984,1.773,4.398
20050502,002129,1502322,32.707181,-117.236748,20.895,2.984,1.733,4.251
20050502,002201,1502354,32.707193,-117.236752,20.896,2.984,1.800,4.479
20050502,002230,1502383,32.707188,-117.236747,20.896,2.984,1.739,4.283
20050502,002300,1502413,32.707188,-117.236750,20.896,2.983,1.739,4.272
20050502,002330,1502443,32.707178,-117.236742,20.896,2.984,1.699,4.122
20050502,002401,1502474,32.707191,-117.236747,20.897,2.984,1.753,4.356
20050502,002430,1502503,32.707196,-117.236743,20.897,2.984,1.659,4.010
20050502,002500,1502533,32.707190,-117.236747,20.897,2.984,1.699,4.038
20050502,002530,1502563,32.707183,-117.236743,20.898,2.984,1.726,4.039
20050502,002601,1502594,32.707188,-117.236745,20.898,2.984,1.639,3.682
20050502,002630,1502623,32.707183,-117.236748,20.898,2.984,1.672,3.699
20050502,002700,1502653,32.707185,-117.236752,20.899,2.984,1.646,3.497
20050502,002730,1502683,32.707185,-117.236752,20.898,2.984,1.726,3.909
20050502,002800,1502713,32.707193,-117.236752,20.899,2.984,1.692,3.893
20050502,002830,1502743,32.707176,-117.236755,20.900,2.984,1.726,4.153
20050502,002900,1502773,32.707166,-117.236755,20.900,2.985,1.672,4.027
20050502,002930,1502803,32.707173,-117.236755,20.900,2.985,1.665,3.959
20050502,003000,1502833,32.707178,-117.236755,20.900,2.985,1.632,3.842
20050502,003030,1502863,32.707178,-117.236753,20.900,2.984,1.706,4.075
20050502,003100,1502893,32.707180,-117.236753,20.900,2.985,1.739,4.172
20050502,003130,1502923,32.707175,-117.236755,20.900,2.985,1.753,4.197
20050502,003200,1502953,32.707175,-117.236753,20.900,2.985,1.860,4.555
20050502,003230,1502983,32.707170,-117.236752,20.900,2.985,1.746,4.181
20050502,003301,1503014,32.707171,-117.236747,20.900,2.985,1.665,3.927
20050502,003330,1503043,32.707176,-117.236748,20.900,2.985,1.739,4.184
20050502,003400,1503073,32.707180,-117.236747,20.901,2.985,1.692,4.022
20050502,003430,1503103,32.707180,-117.236750,20.900,2.985,1.840,4.521
20050502,003500,1503133,32.707175,-117.236743,20.901,2.985,1.686,3.985
20050502,003530,1503163,32.707180,-117.236750,20.901,2.985,1.612,3.673
20050502,003600,1503193,32.707180,-117.236747,20.902,2.985,1.646,3.798
20050502,003631,1503225,32.707175,-117.236745,20.902,2.985,1.706,3.960
20050502,003700,1503253,32.707170,-117.236742,20.902,2.985,1.646,3.856
20050502,003730,1503283,32.707183,-117.236752,20.902,2.985,1.719,4.148
20050502,003801,1503314,32.707183,-117.236752,20.903,2.986,1.786,4.405
20050502,003830,1503343,32.707181,-117.236757,20.903,2.986,1.619,3.844
20050502,003900,1503373,32.707181,-117.236758,20.904,2.985,1.632,3.896
20050502,003930,1503403,32.707178,-117.236753,20.903,2.986,1.713,4.159
20050502,004000,1503433,32.707178,-117.236755,20.904,2.985,1.746,4.269
20050502,004030,1503463,32.707180,-117.236752,20.906,2.985,1.760,4.319
20050502,004100,1503493,32.707181,-117.236755,20.906,2.985,1.686,4.055
20050502,004130,1503523,32.707183,-117.236755,20.907,2.985,1.639,3.885
20050502,004200,1503553,32.707185,-117.236755,20.906,2.985,1.646,3.893
20050502,004230,1503583,32.707183,-117.236753,20.906,2.985,1.585,3.695
20050502,004301,1503614,32.707176,-117.236743,20.906,2.985,1.773,4.302
20050502,004330,1503643,32.707180,-117.236750,20.907,2.986,1.766,4.279
20050502,004400,1503673,32.707180,-117.236748,20.907,2.986,1.672,3.980
20050502,004430,1503703,32.707183,-117.236747,20.908,2.986,1.706,4.063
20050502,004500,1503733,32.707181,-117.236748,20.908,2.986,1.625,3.747
20050502,004530,1503763,32.707178,-117.236752,20.908,2.986,1.605,3.663
20050502,004600,1503793,32.707175,-117.236747,20.908,2.986,1.672,3.860
20050502,004630,1503823,32.707178,-117.236747,20.909,2.986,1.719,3.989
20050502,004700,1503853,32.707181,-117.236742,20.910,2.986,1.820,4.301
20050502,004730,1503883,32.707178,-117.236743,20.909,2.986,1.619,3.647
20050502,004800,1503913,32.707178,-117.236748,20.910,2.986,1.719,3.941
20050502,004830,1503943,32.707180,-117.236743,20.910,2.986,1.706,3.871
20050502,004900,1503973,32.707185,-117.236753,20.910,2.986,1.766,4.068
20050502,004930,1504003,32.707183,-117.236748,20.910,2.986,1.652,3.731
20050502,005000,1504033,32.707180,-117.236745,20.911,2.986,1.793,4.178
20050502,005031,1504064,32.707171,-117.236745,20.911,2.986,1.652,3.730
20050502,005100,1504093,32.707175,-117.236747,20.911,2.986,1.605,3.596
20050502,005131,1504124,32.707176,-117.236748,20.912,2.986,1.632,3.679
20050502,005201,1504154,32.707175,-117.236745,20.912,2.986,1.646,3.730
20050502,005230,1504183,32.707173,-117.236745,20.912,2.986,1.632,3.706
20050502,005300,1504213,32.707171,-117.236747,20.912,2.986,1.692,3.922
20050502,005330,1504243,32.707180,-117.236747,20.913,2.987,1.579,3.569
20050502,005400,1504273,32.707173,-117.236742,20.913,2.987,1.672,3.857
20050502,005430,1504303,32.707178,-117.236745,20.913,2.987,1.652,3.791
20050502,005500,1504333,32.707173,-117.236743,20.914,2.987,1.733,4.048
20050502,005530,1504363,32.707176,-117.236742,20.914,2.987,1.639,3.712
20050502,005601,1504394,32.707175,-117.236742,20.915,2.987,1.672,3.793
20050502,005630,1504423,32.707173,-117.236745,20.914,2.987,1.619,3.647
20050502,005700,1504453,32.707171,-117.236745,20.914,2.987,1.599,3.592
20050502,005730,1504483,32.707173,-117.236745,20.915,2.987,1.565,3.500
20050502,005800,1504513,32.707171,-117.236743,20.915,2.987,1.646,3.765
20050502,005830,1504543,32.707171,-117.236743,20.915,2.987,1.652,3.773
20050502,005900,1504573,32.707171,-117.236740,20.915,2.987,1.605,3.589
20050502,005930,1504603,32.707173,-117.236740,20.915,2.987,1.652,3.733
20050502,010000,1504633,32.707176,-117.236740,20.916,2.987,1.619,3.647
20050502,010030,1504664,32.707171,-117.236743,20.916,2.987,1.773,4.133
20050502,010100,1504693,32.707165,-117.236743,20.916,2.987,1.646,3.734
20050502,010131,1504724,32.707170,-117.236745,20.916,2.987,1.726,3.972
20050502,010200,1504753,32.707170,-117.236748,20.916,2.987,1.652,3.713
20050502,010230,1504783,32.707168,-117.236745,20.916,2.987,1.659,3.731
20050502,010300,1504813,32.707173,-117.236747,20.916,2.987,1.699,3.847
20050502,010330,1504843,32.707178,-117.236745,20.917,2.987,1.679,3.809
20050502,010400,1504873,32.707175,-117.236748,20.916,2.987,1.605,3.597
20050502,010430,1504903,32.707176,-117.236743,20.917,2.987,1.585,3.536
20050502,010500,1504933,32.707181,-117.236747,20.918,2.987,1.672,3.800
20050502,010531,1504964,32.707175,-117.236743,20.918,2.987,1.679,3.810
20050502,010600,1504993,32.707180,-117.236747,20.917,2.987,1.639,3.671
20050502,010630,1505023,32.707176,-117.236745,20.917,2.988,1.599,3.546
20050502,010701,1505054,32.707178,-117.236745,20.918,2.987,1.585,3.502
20050502,010730,1505083,32.707180,-117.236743,20.918,2.988,1.605,3.553
20050502,010800,1505113,32.707176,-117.236743,20.918,2.988,1.632,3.628
20050502,010830,1505143,32.707176,-117.236747,20.918,2.988,1.632,3.620
20050502,010900,1505173,32.707176,-117.236743,20.919,2.988,1.679,3.755
20050502,010930,1505203,32.707181,-117.236745,20.919,2.988,1.599,3.504
20050502,011000,1505233,32.707175,-117.236745,20.918,2.988,1.625,3.577
20050502,011030,1505263,32.707178,-117.236745,20.919,2.988,1.579,3.429
20050502,011101,1505294,32.707173,-117.236745,20.920,2.988,1.713,3.832
20050502,011130,1505323,32.707176,-117.236747,20.919,2.988,1.632,3.583
20050502,011200,1505353,32.707171,-117.236745,20.920,2.988,1.726,3.868
20050502,011230,1505383,32.707178,-117.236745,20.920,2.988,1.625,3.551
20050502,011300,1505413,32.707176,-117.236742,20.920,2.988,1.726,3.847
20050502,011330,1505443,32.707178,-117.236743,20.920,2.988,1.625,3.530
20050502,011400,1505473,32.707178,-117.236743,20.920,2.988,1.612,3.433
20050502,011430,1505503,32.707180,-117.236742,20.921,2.988,1.739,3.803
20050502,011500,1505533,32.707180,-117.236743,20.921,2.988,1.605,3.408
20050502,011531,1505564,32.707175,-117.236743,20.921,2.988,1.659,3.564
20050502,011600,1505593,32.707178,-117.236743,20.920,2.988,1.612,3.383
20050502,011630,1505623,32.707180,-117.236747,20.921,2.988,1.760,3.732
20050502,011700,1505653,32.707175,-117.236742,20.921,2.988,1.632,3.451
20050502,011731,1505684,32.707176,-117.236742,20.921,2.988,1.599,3.390
20050502,011800,1505713,32.707173,-117.236748,20.921,2.988,1.605,3.430
20050502,011830,1505743,32.707178,-117.236745,20.921,2.988,1.686,3.662
20050502,011900,1505773,32.707173,-117.236743,20.921,2.988,1.585,3.348
20050502,011930,1505803,32.707176,-117.236748,20.921,2.988,1.726,3.743
20050502,012000,1505833,32.707175,-117.236748,20.921,2.988,1.585,3.323
20050502,012030,1505863,32.707176,-117.236750,20.921,2.988,1.639,3.393
20050502,012100,1505893,32.707171,-117.236752,20.921,2.988,1.760,3.297
20050502,012131,1505925,32.707178,-117.236753,20.921,2.988,1.585,3.136
20050502,012200,1505953,32.707171,-117.236743,20.922,2.988,1.625,3.395
20050502,012230,1505983,32.707173,-117.236752,20.921,2.989,1.592,3.326
20050502,012300,1506014,32.707173,-117.236747,20.921,2.989,1.612,3.375
20050502,012330,1506043,32.707175,-117.236745,20.921,2.989,1.565,3.237
20050502,012400,1506073,32.707171,-117.236747,20.921,2.989,1.719,3.644
20050502,012430,1506103,32.707173,-117.236747,20.921,2.989,1.572,3.062
20050502,012500,1506133,32.707176,-117.236748,20.921,2.989,1.599,3.278
20050502,012530,1506163,32.707175,-117.236750,20.921,2.989,1.619,3.352
20050502,012600,1506193,32.707178,-117.236753,20.922,2.989,1.665,3.487
20050502,012630,1506223,32.707171,-117.236748,20.921,2.989,1.726,3.650
20050502,012701,1506254,32.707178,-117.236758,20.922,2.989,1.619,3.333
20050502,012730,1506283,32.707175,-117.236752,20.921,2.989,1.579,3.225
20050502,012800,1506313,32.707180,-117.236750,20.921,2.989,1.572,3.195
20050502,012831,1506344,32.707180,-117.236748,20.923,2.989,1.605,3.230
20050502,012900,1506373,32.707178,-117.236752,20.923,2.989,1.612,3.284
20050502,012931,1506404,32.707176,-117.236742,20.923,2.989,1.619,3.299
20050502,013001,1506434,32.707181,-117.236750,20.923,2.989,1.605,3.256
20050502,013031,1506464,32.707173,-117.236747,20.923,2.989,1.572,3.148
20050502,013101,1506494,32.707173,-117.236747,20.923,2.989,1.659,3.382
20050502,013131,1506524,32.707171,-117.236747,20.924,2.989,1.565,3.135
20050502,013200,1506553,32.707176,-117.236750,20.924,2.989,1.766,3.700
20050502,013231,1506584,32.707178,-117.236753,20.924,2.989,1.652,3.328
20050502,013301,1506614,32.707180,-117.236755,20.925,2.989,1.545,3.038
20050502,013331,1506644,32.707176,-117.236753,20.925,2.989,1.545,3.048
20050502,013401,1506674,32.707178,-117.236753,20.925,2.989,1.646,3.321
20050502,013431,1506704,32.707175,-117.236750,20.925,2.989,1.565,3.100
20050502,013500,1506733,32.707181,-117.236755,20.925,2.989,1.565,3.098
20050502,013531,1506764,32.707168,-117.236750,20.925,2.989,1.612,3.218
20050502,013601,1506794,32.707173,-117.236747,20.925,2.989,1.545,2.917
20050502,013631,1506824,32.707175,-117.236742,20.925,2.989,1.699,3.331
20050502,013701,1506854,32.707178,-117.236743,20.925,2.989,1.565,3.067
20050502,013731,1506884,32.707178,-117.236743,20.925,2.989,1.612,3.195
20050502,013801,1506914,32.707180,-117.236747,20.925,2.989,1.599,3.153
20050502,013831,1506944,32.707176,-117.236747,20.925,2.989,1.612,3.165
20050502,013901,1506974,32.707181,-117.236747,20.925,2.989,1.565,2.983
20050502,013931,1507004,32.707175,-117.236750,20.924,2.990,1.719,3.420
20050502,014001,1507034,32.707176,-117.236753,20.924,2.990,1.572,3.045
20050502,014031,1507064,32.707180,-117.236750,20.925,2.990,1.692,3.363
20050502,014101,1507094,32.707173,-117.236753,20.925,2.990,1.532,2.926
20050502,014132,1507125,32.707175,-117.236752,20.924,2.990,1.585,3.061
20050502,014201,1507154,32.707180,-117.236750,20.924,2.990,1.572,3.015
20050502,014231,1507184,32.707171,-117.236750,20.924,2.990,1.579,3.023
20050502,014301,1507214,32.707175,-117.236752,20.925,2.990,1.625,3.137
20050502,014331,1507244,32.707175,-117.236750,20.924,2.990,1.625,3.133
20050502,014401,1507275,32.707175,-117.236747,20.923,2.990,1.612,3.093
20050502,014431,1507304,32.707175,-117.236747,20.925,2.990,1.532,2.855
20050502,014501,1507334,32.707173,-117.236743,20.923,2.990,1.625,3.062
20050502,014531,1507364,32.707168,-117.236753,20.924,2.990,1.592,2.986
20050502,014601,1507394,32.707163,-117.236748,20.924,2.990,1.559,2.909
20050502,014632,1507425,32.707173,-117.236752,20.924,2.990,1.532,2.839
20050502,014701,1507454,32.707165,-117.236750,20.924,2.990,1.579,2.947
20050502,014731,1507484,32.707170,-117.236755,20.925,2.990,1.619,3.025
20050502,014801,1507514,32.707165,-117.236748,20.924,2.990,1.545,2.803
20050502,014831,1507544,32.707171,-117.236753,20.924,2.990,1.646,3.004
20050502,014901,1507574,32.707171,-117.236750,20.924,2.990,1.559,2.749
20050502,014932,1507605,32.707171,-117.236752,20.924,2.990,1.599,2.812
20050502,015001,1507634,32.707170,-117.236753,20.923,2.991,1.592,2.771
20050502,015031,1507664,32.707170,-117.236750,20.923,2.991,1.565,2.679
20050502,015101,1507694,32.707171,-117.236747,20.923,2.991,1.572,2.677
20050502,015131,1507724,32.707168,-117.236753,20.923,2.991,1.585,2.665
20050502,015201,1507754,32.707178,-117.236755,20.923,2.991,1.652,2.794
20050502,015231,1507784,32.707170,-117.236753,20.923,2.991,1.652,2.782
20050502,015301,1507814,32.707178,-117.236753,20.923,2.991,1.592,2.629
20050502,015332,1507845,32.707170,-117.236745,20.922,2.991,1.519,2.461
20050502,015401,1507874,32.707171,-117.236757,20.922,2.991,1.559,2.546
20050502,015432,1507905,32.707173,-117.236757,20.922,2.991,1.619,2.678
20050502,015501,1507934,32.707168,-117.236755,20.922,2.991,1.619,2.676
20050502,015531,1507964,32.707171,-117.236758,20.922,2.991,1.646,2.735
20050502,015601,1507994,32.707168,-117.236758,20.921,2.991,1.572,2.568
20050502,015631,1508024,32.707178,-117.236757,20.921,2.991,1.592,2.611
20050502,015701,1508054,32.707165,-117.236760,20.921,2.991,1.559,2.535
20050502,015731,1508084,32.707170,-117.236755,20.921,2.991,1.585,2.592
20050502,015801,1508114,32.707173,-117.236757,20.921,2.991,1.559,2.531
20050502,015831,1508144,32.707171,-117.236755,20.921,2.991,1.579,2.573
20050502,015901,1508174,32.707171,-117.236753,20.921,2.991,1.659,2.751
20050502,015932,1508205,32.707173,-117.236757,20.921,2.991,1.612,2.642
20050502,020002,1508235,32.707173,-117.236760,20.921,2.991,1.592,2.595
20050502,020031,1508264,32.707176,-117.236762,20.920,2.991,1.585,2.576
20050502,020101,1508294,32.707170,-117.236758,20.920,2.991,1.579,2.557
20050502,020131,1508324,32.707170,-117.236762,20.920,2.991,1.572,2.538
20050502,020201,1508354,32.707178,-117.236758,20.920,2.991,1.605,2.610
20050502,020231,1508384,32.707168,-117.236755,20.920,2.991,1.592,2.581
20050502,020301,1508414,32.707168,-117.236753,20.919,2.991,1.585,2.565
20050502,020331,1508444,32.707166,-117.236753,20.920,2.991,1.579,2.549
20050502,020401,1508474,32.707168,-117.236755,20.919,2.991,1.619,2.635
20050502,020431,1508504,32.707175,-117.236762,20.918,2.992,1.572,2.531
20050502,020501,1508534,32.707170,-117.236752,20.918,2.992,1.605,2.603
20050502,020532,1508565,32.707163,-117.236755,20.918,2.992,1.713,2.843
20050502,020601,1508594,32.707163,-117.236753,20.918,2.992,1.592,2.571
20050502,020631,1508625,32.707158,-117.236753,20.918,2.992,1.579,2.540
20050502,020701,1508654,32.707163,-117.236757,20.918,2.992,1.512,2.393
20050502,020731,1508684,32.707160,-117.236757,20.918,2.992,1.552,2.477
20050502,020801,1508714,32.707158,-117.236755,20.917,2.992,1.559,2.489
20050502,020832,1508745,32.707161,-117.236758,20.918,2.992,1.579,2.531
20050502,020901,1508774,32.707161,-117.236755,20.917,2.992,1.579,2.528
20050502,020931,1508804,32.707161,-117.236757,20.916,2.992,1.559,2.483
20050502,021001,1508834,32.707160,-117.236757,20.917,2.992,1.605,2.583
20050502,021031,1508864,32.707161,-117.236757,20.916,2.992,1.559,2.480
20050502,021101,1508894,32.707165,-117.236760,20.916,2.992,1.545,2.450
20050502,021131,1508924,32.707161,-117.236757,20.916,2.992,1.579,2.521
20050502,021201,1508954,32.707168,-117.236758,20.916,2.992,1.726,2.846
20050502,021231,1508984,32.707163,-117.236757,20.915,2.992,1.559,2.474
20050502,021301,1509014,32.707165,-117.236753,20.916,2.992,1.579,2.516
20050502,021332,1509045,32.707166,-117.236757,20.915,2.992,1.592,2.544
20050502,021401,1509074,32.707168,-117.236758,20.915,2.992,1.539,2.427
20050502,021431,1509104,32.707168,-117.236758,20.915,2.992,1.552,2.454
20050502,021501,1509134,32.707166,-117.236762,20.914,2.992,1.585,2.526
20050502,021531,1509164,32.707163,-117.236757,20.914,2.992,1.585,2.524
20050502,021601,1509194,32.707158,-117.236758,20.914,2.992,1.572,2.493
20050502,021631,1509224,32.707160,-117.236760,20.914,2.992,1.572,2.491
20050502,021701,1509254,32.707165,-117.236758,20.914,2.992,1.565,2.475
20050502,021731,1509284,32.707166,-117.236760,20.914,2.992,1.545,2.431
20050502,021801,1509314,32.707166,-117.236758,20.913,2.993,1.719,2.809
20050502,021831,1509344,32.707163,-117.236755,20.913,2.993,1.532,2.398
20050502,021902,1509375,32.707165,-117.236758,20.912,2.993,1.545,2.424
20050502,021931,1509404,32.707163,-117.236753,20.912,2.993,1.599,2.537
20050502,022002,1509435,32.707161,-117.236755,20.912,2.993,1.646,2.637
20050502,022032,1509465,32.707163,-117.236755,20.912,2.993,1.559,2.447
20050502,022102,1509495,32.707165,-117.236758,20.913,2.993,1.592,2.517
20050502,022132,1509525,32.707163,-117.236760,20.912,2.993,1.585,2.502
20050502,022201,1509554,32.707165,-117.236758,20.912,2.993,1.599,2.529
20050502,022231,1509584,32.707166,-117.236763,20.911,2.993,1.659,2.659
20050502,022301,1509614,32.707166,-117.236762,20.912,2.993,1.632,2.599
20050502,022331,1509644,32.707165,-117.236760,20.912,2.993,1.592,2.512
20050502,022402,1509675,32.707165,-117.236762,20.911,2.993,1.525,2.369
20050502,022432,1509705,32.707166,-117.236762,20.911,2.993,1.585,2.496
20050502,022502,1509735,32.707165,-117.236763,20.910,2.993,1.585,2.495
20050502,022531,1509764,32.707170,-117.236760,20.910,2.993,1.512,2.338
20050502,022601,1509794,32.707166,-117.236762,20.910,2.993,1.592,2.507
20050502,022631,1509824,32.707165,-117.236762,20.910,2.993,1.579,2.478
20050502,022702,1509855,32.707160,-117.236757,20.910,2.993,1.585,2.491
20050502,022731,1509884,32.707163,-117.236758,20.909,2.993,1.612,2.547
20050502,022801,1509914,32.707166,-117.236755,20.910,2.993,1.572,2.461
20050502,022832,1509945,32.707166,-117.236758,20.909,2.993,1.532,2.376
20050502,022901,1509975,32.707166,-117.236758,20.909,2.993,1.605,2.531
20050502,022932,1510005,32.707168,-117.236762,20.910,2.993,1.559,2.430
20050502,023002,1510035,32.707168,-117.236762,20.908,2.993,1.512,2.332
20050502,023032,1510065,32.707168,-117.236763,20.908,2.993,1.559,2.429
20050502,023102,1510095,32.707171,-117.236760,20.908,2.994,1.579,2.471
20050502,023132,1510125,32.707165,-117.236760,20.908,2.994,1.565,2.442
20050502,023202,1510155,32.707166,-117.236760,20.907,2.994,1.525,2.357
20050502,023232,1510185,32.707165,-117.236758,20.907,2.994,1.498,2.301
20050502,023302,1510215,32.707166,-117.236755,20.906,2.994,1.545,2.399
20050502,023332,1510245,32.707170,-117.236758,20.907,2.994,1.559,2.426
20050502,023402,1510275,32.707176,-117.236750,20.906,2.994,1.525,2.356
20050502,023432,1510305,32.707176,-117.236755,20.906,2.994,1.579,2.468
20050502,023502,1510335,32.707175,-117.236750,20.906,2.994,1.592,2.496
20050502,023532,1510365,32.707173,-117.236753,20.904,2.994,1.545,2.397
20050502,023602,1510395,32.707173,-117.236753,20.904,2.994,1.539,2.382
20050502,023632,1510425,32.707175,-117.236750,20.904,2.994,1.512,2.326
20050502,023703,1510456,32.707173,-117.236757,20.904,2.994,1.599,2.509
20050502,023733,1510486,32.707178,-117.236757,20.903,2.994,1.545,2.395
20050502,023802,1510515,32.707178,-117.236755,20.903,2.994,1.572,2.451
20050502,023833,1510546,32.707178,-117.236757,20.903,2.994,1.519,2.339
20050502,023902,1510575,32.707176,-117.236750,20.902,2.994,1.605,2.521
20050502,023932,1510605,32.707175,-117.236755,20.902,2.994,1.592,2.493
20050502,024002,1510635,32.707176,-117.236753,20.902,2.994,1.519,2.338
20050502,024032,1510665,32.707193,-117.236755,20.901,2.994,1.439,2.174
20050502,024102,1510695,32.707200,-117.236757,20.901,2.994,1.532,2.365
20050502,024132,1510725,32.707161,-117.236762,20.900,2.994,1.572,2.449
20050502,024202,1510755,32.707160,-117.236762,20.901,2.994,1.498,2.295
20050502,024232,1510785,32.707158,-117.236763,20.900,2.994,1.525,2.351
20050502,024303,1510816,32.707170,-117.236762,20.900,2.994,1.559,2.420
20050502,024332,1510845,32.707173,-117.236763,20.898,2.994,1.512,2.323
20050502,024402,1510875,32.707173,-117.236763,20.899,2.994,1.585,2.477
20050502,024432,1510905,32.707175,-117.236762,20.898,2.994,1.525,2.350
20050502,024503,1510936,32.707163,-117.236765,20.898,2.994,1.559,2.420
20050502,024532,1510965,32.707160,-117.236762,20.898,2.994,1.552,2.405
20050502,024602,1510995,32.707160,-117.236765,20.898,2.994,1.525,2.350
20050502,024633,1511026,32.707165,-117.236765,20.898,2.994,1.545,2.392